Time,TemperatureF,DewpointF,PressureIn,WindDirection,WindDirectionDegrees,WindSpeedMPH,WindSpeedGustMPH,Humidity,HourlyPrecipIn,Conditions,Clouds,dailyrainin,SolarRadiationWatts/m^2,SoftwareType,DateUTC
2013-03-09 00:11:00,66.0,-29.0,-100.00,North,359,1.0,10.0,0,0.00,,,0.00,0.000000,,2013-03-09 10:11:00,
2013-03-09 00:21:00,66.0,-29.0,-100.00,North,359,1.0,10.0,0,0.00,,,0.00,0.000000,,2013-03-09 10:21:00,
2013-03-09 00:31:00,66.0,-29.0,-100.00,North,359,1.0,10.0,0,0.00,,,0.00,0.000000,,2013-03-09 10:31:00,
2013-03-09 00:41:00,66.0,-29.0,-100.00,North,359,1.0,10.0,0,0.00,,,0.00,0.000000,,2013-03-09 10:41:00,
2013-03-09 00:51:00,66.0,-29.0,-100.00,NNE,15,2.0,7.0,0,0.00,,,0.00,0.000000,,2013-03-09 10:51:00,
2013-03-09 01:11:00,66.0,-29.0,-100.00,NNE,15,2.0,7.0,0,0.00,,,0.00,0.000000,,2013-03-09 11:11:00,
2013-03-09 01:21:00,66.0,-29.0,-100.00,NNE,15,2.0,7.0,0,0.00,,,0.00,0.000000,,2013-03-09 11:21:00,
2013-03-09 01:32:00,66.0,-29.0,-100.00,NNE,15,2.0,7.0,0,0.00,,,0.00,0.000000,,2013-03-09 11:32:00,
2013-03-09 01:41:00,66.0,-29.0,-100.00,NNE,15,2.0,7.0,0,0.00,,,0.00,0.000000,,2013-03-09 11:41:00,
2013-03-09 01:51:00,66.0,-29.0,-100.00,WNW,298,3.0,9.0,0,0.00,,,0.00,0.000000,,2013-03-09 11:51:00,
2013-03-09 02:11:00,66.0,-29.0,-100.00,WNW,298,3.0,9.0,0,0.00,,,0.00,0.000000,,2013-03-09 12:11:00,
2013-03-09 02:21:00,66.0,-29.0,-100.00,WNW,298,3.0,9.0,0,0.00,,,0.00,0.000000,,2013-03-09 12:21:00,
2013-03-09 02:32:00,66.0,-29.0,-100.00,WNW,298,3.0,9.0,0,0.00,,,0.00,0.000000,,2013-03-09 12:32:00,
2013-03-09 02:42:00,66.0,-29.0,-100.00,WNW,298,3.0,9.0,0,0.00,,,0.00,0.000000,,2013-03-09 12:42:00,
2013-03-09 02:51:00,66.0,-29.0,-100.00,West,275,4.0,10.0,0,0.00,,,0.00,0.000000,,2013-03-09 12:51:00,
2013-03-09 03:21:00,66.0,-29.0,-100.00,West,275,4.0,10.0,0,0.00,,,0.00,0.000000,,2013-03-09 13:21:00,
2013-03-09 03:31:00,66.0,-29.0,-100.00,West,275,4.0,10.0,0,0.00,,,0.00,0.000000,,2013-03-09 13:31:00,
2013-03-09 03:41:00,66.0,-29.0,-100.00,West,275,4.0,10.0,0,0.00,,,0.00,0.000000,,2013-03-09 13:41:00,
2013-03-09 03:51:00,66.0,-29.0,-100.00,SSE,167,4.0,12.0,0,0.00,,,0.00,0.000000,,2013-03-09 13:51:00,
2013-03-09 04:11:00,66.0,-29.0,-100.00,SSE,167,4.0,12.0,0,0.00,,,0.00,0.000000,,2013-03-09 14:11:00,
2013-03-09 04:21:00,66.0,-29.0,-100.00,SSE,167,4.0,12.0,0,0.00,,,0.00,0.000000,,2013-03-09 14:21:00,
2013-03-09 04:31:00,66.0,-29.0,-100.00,SSE,167,4.0,12.0,0,0.00,,,0.00,0.000000,,2013-03-09 14:31:00,
2013-03-09 04:41:00,66.0,-29.0,-100.00,SSE,167,4.0,12.0,0,0.00,,,0.00,0.000000,,2013-03-09 14:41:00,
2013-03-09 04:51:00,66.0,-29.0,-100.00,NW,305,4.0,12.0,0,0.00,,,0.00,0.000000,,2013-03-09 14:51:00,
2013-03-09 05:22:00,66.0,-29.0,-100.00,NW,305,4.0,12.0,0,0.00,,,0.00,0.000000,,2013-03-09 15:22:00,
2013-03-09 05:31:00,66.0,-29.0,-100.00,NW,305,4.0,12.0,0,0.00,,,0.00,0.000000,,2013-03-09 15:31:00,
2013-03-09 05:42:00,66.0,-29.0,-100.00,NW,305,4.0,12.0,0,0.00,,,0.00,0.000000,,2013-03-09 15:42:00,
2013-03-09 05:51:00,66.0,-29.0,-100.00,NE,39,3.0,13.0,0,0.00,,,0.00,0.000000,,2013-03-09 15:51:00,
2013-03-09 06:11:00,66.0,-29.0,-100.00,NE,39,3.0,13.0,0,0.00,,,0.00,0.000000,,2013-03-09 16:11:00,
2013-03-09 06:21:00,66.0,-29.0,-100.00,NE,39,3.0,13.0,0,0.00,,,0.00,0.000000,,2013-03-09 16:21:00,
2013-03-09 06:31:00,66.0,-29.0,-100.00,NE,39,3.0,13.0,0,0.00,,,0.00,0.000000,,2013-03-09 16:31:00,
2013-03-09 06:41:00,66.0,-29.0,-100.00,NE,39,3.0,13.0,0,0.00,,,0.00,0.000000,,2013-03-09 16:41:00,
2013-03-09 06:51:00,66.0,-29.0,-100.00,WSW,242,5.0,14.0,0,0.00,,,0.00,0.000000,,2013-03-09 16:51:00,
2013-03-09 07:22:00,66.0,-29.0,-100.00,WSW,242,5.0,14.0,0,0.00,,,0.00,0.000000,,2013-03-09 17:22:00,
2013-03-09 07:32:00,66.0,-29.0,-100.00,WSW,242,5.0,14.0,0,0.00,,,0.00,0.000000,,2013-03-09 17:32:00,
2013-03-09 07:42:00,66.0,-29.0,-100.00,WSW,242,5.0,14.0,0,0.00,,,0.00,0.000000,,2013-03-09 17:42:00,
2013-03-09 07:51:00,66.0,-29.0,-100.00,WSW,239,5.0,17.0,0,0.00,,,0.00,14.000000,,2013-03-09 17:51:00,
2013-03-09 08:21:00,66.0,-29.0,-100.00,WSW,239,5.0,17.0,0,0.00,,,0.00,14.000000,,2013-03-09 18:21:00,
2013-03-09 08:31:00,66.0,-29.0,-100.00,WSW,239,5.0,17.0,0,0.00,,,0.00,14.000000,,2013-03-09 18:31:00,
2013-03-09 08:42:00,66.0,-29.0,-100.00,WSW,239,5.0,17.0,0,0.00,,,0.00,14.000000,,2013-03-09 18:42:00,
2013-03-09 08:51:00,68.0,-28.0,-100.00,SSW,212,4.0,15.0,0,0.00,,,0.00,72.000000,,2013-03-09 18:51:00,
2013-03-09 09:22:00,68.0,-28.0,-100.00,SSW,212,4.0,15.0,0,0.00,,,0.00,72.000000,,2013-03-09 19:22:00,
2013-03-09 09:32:00,68.0,-28.0,-100.00,SSW,212,4.0,15.0,0,0.00,,,0.00,72.000000,,2013-03-09 19:32:00,
2013-03-09 09:42:00,68.0,-28.0,-100.00,SSW,212,4.0,15.0,0,0.00,,,0.00,72.000000,,2013-03-09 19:42:00,
2013-03-09 09:51:00,69.0,-28.0,-100.00,WNW,285,5.0,12.0,0,0.00,,,0.00,163.000000,,2013-03-09 19:51:00,
2013-03-09 10:11:00,69.0,-28.0,-100.00,WNW,285,5.0,12.0,0,0.00,,,0.00,163.000000,,2013-03-09 20:11:00,
2013-03-09 10:21:00,69.0,-28.0,-100.00,WNW,285,5.0,12.0,0,0.00,,,0.00,163.000000,,2013-03-09 20:21:00,
2013-03-09 10:32:00,69.0,-28.0,-100.00,WNW,285,5.0,12.0,0,0.00,,,0.00,163.000000,,2013-03-09 20:32:00,
2013-03-09 10:41:00,69.0,-28.0,-100.00,WNW,285,5.0,12.0,0,0.00,,,0.00,163.000000,,2013-03-09 20:41:00,
2013-03-09 10:51:00,70.0,-27.0,-100.00,East,80,4.0,14.0,0,0.00,,,0.00,177.000000,,2013-03-09 20:51:00,
2013-03-09 11:11:00,70.0,-27.0,-100.00,East,80,4.0,14.0,0,0.00,,,0.00,177.000000,,2013-03-09 21:11:00,
2013-03-09 11:21:00,70.0,-27.0,-100.00,East,80,4.0,14.0,0,0.00,,,0.00,177.000000,,2013-03-09 21:21:00,
2013-03-09 11:31:00,70.0,-27.0,-100.00,East,80,4.0,14.0,0,0.00,,,0.00,177.000000,,2013-03-09 21:31:00,
2013-03-09 11:41:00,70.0,-27.0,-100.00,East,80,4.0,14.0,0,0.00,,,0.00,177.000000,,2013-03-09 21:41:00,
2013-03-09 11:51:00,70.0,-27.0,-100.00,West,276,5.0,16.0,0,0.00,,,0.00,213.000000,,2013-03-09 21:51:00,
2013-03-09 12:11:00,70.0,-27.0,-100.00,West,276,5.0,16.0,0,0.00,,,0.00,213.000000,,2013-03-09 22:11:00,
2013-03-09 12:21:00,70.0,-27.0,-100.00,West,276,5.0,16.0,0,0.00,,,0.00,213.000000,,2013-03-09 22:21:00,
2013-03-09 12:32:00,70.0,-27.0,-100.00,West,276,5.0,16.0,0,0.00,,,0.00,213.000000,,2013-03-09 22:32:00,
2013-03-09 12:41:00,70.0,-27.0,-100.00,West,276,5.0,16.0,0,0.00,,,0.00,213.000000,,2013-03-09 22:41:00,
2013-03-09 12:51:00,70.0,-27.0,-100.00,West,275,6.0,15.0,0,0.00,,,0.00,181.000000,,2013-03-09 22:51:00,
2013-03-09 13:11:00,70.0,-27.0,-100.00,West,275,6.0,15.0,0,0.00,,,0.00,181.000000,,2013-03-09 23:11:00,
2013-03-09 13:21:00,70.0,-27.0,-100.00,West,275,6.0,15.0,0,0.00,,,0.00,181.000000,,2013-03-09 23:21:00,
2013-03-09 13:32:00,70.0,-27.0,-100.00,West,275,6.0,15.0,0,0.00,,,0.00,181.000000,,2013-03-09 23:32:00,
2013-03-09 13:41:00,70.0,-27.0,-100.00,West,275,6.0,15.0,0,0.00,,,0.00,181.000000,,2013-03-09 23:41:00,
2013-03-09 13:51:00,71.0,-26.0,-100.00,SW,221,5.0,16.0,0,0.00,,,0.00,236.000000,,2013-03-09 23:51:00,
2013-03-09 14:11:00,71.0,-26.0,-100.00,SW,221,5.0,16.0,0,0.00,,,0.00,236.000000,,2013-03-10 00:11:00,
2013-03-09 14:22:00,71.0,-26.0,-100.00,SW,221,5.0,16.0,0,0.00,,,0.00,236.000000,,2013-03-10 00:22:00,
2013-03-09 14:32:00,71.0,-26.0,-100.00,SW,221,5.0,16.0,0,0.00,,,0.00,236.000000,,2013-03-10 00:32:00,
2013-03-09 14:42:00,71.0,-26.0,-100.00,SW,221,5.0,16.0,0,0.00,,,0.00,236.000000,,2013-03-10 00:42:00,
2013-03-09 14:51:00,70.0,-27.0,-100.00,West,259,5.0,17.0,0,0.00,,,0.00,263.000000,,2013-03-10 00:51:00,
2013-03-09 15:11:00,70.0,-27.0,-100.00,West,259,5.0,17.0,0,0.00,,,0.00,263.000000,,2013-03-10 01:11:00,
2013-03-09 15:21:00,70.0,-27.0,-100.00,West,259,5.0,17.0,0,0.00,,,0.00,263.000000,,2013-03-10 01:21:00,
2013-03-09 15:31:00,70.0,-27.0,-100.00,West,259,5.0,17.0,0,0.00,,,0.00,263.000000,,2013-03-10 01:31:00,
2013-03-09 15:41:00,70.0,-27.0,-100.00,West,259,5.0,17.0,0,0.00,,,0.00,263.000000,,2013-03-10 01:41:00,
2013-03-09 15:51:00,70.0,-27.0,-100.00,NW,309,4.0,16.0,0,0.00,,,-99.99,177.000000,,2013-03-10 01:51:00,
2013-03-09 16:22:00,70.0,-27.0,-100.00,NW,309,4.0,16.0,0,0.00,,,-99.99,177.000000,,2013-03-10 02:22:00,
2013-03-09 16:31:00,70.0,-27.0,-100.00,NW,309,4.0,16.0,0,0.00,,,-99.99,177.000000,,2013-03-10 02:31:00,
2013-03-09 16:41:00,70.0,-27.0,-100.00,NW,309,4.0,16.0,0,0.00,,,-99.99,177.000000,,2013-03-10 02:41:00,
2013-03-09 16:51:00,69.0,-28.0,-100.00,NW,311,4.0,15.0,0,0.00,,,0.00,103.000000,,2013-03-10 02:51:00,
2013-03-09 17:11:00,69.0,-28.0,-100.00,NW,311,4.0,15.0,0,0.00,,,0.00,103.000000,,2013-03-10 03:11:00,
2013-03-09 17:22:00,69.0,-28.0,-100.00,NW,311,4.0,15.0,0,0.00,,,0.00,103.000000,,2013-03-10 03:22:00,
2013-03-09 17:31:00,69.0,-28.0,-100.00,NW,311,4.0,15.0,0,0.00,,,0.00,103.000000,,2013-03-10 03:31:00,
2013-03-09 17:42:00,69.0,-28.0,-100.00,NW,311,4.0,15.0,0,0.00,,,0.00,103.000000,,2013-03-10 03:42:00,
2013-03-09 17:51:00,67.0,-29.0,-100.00,NE,45,3.0,10.0,0,0.00,,,0.00,24.000000,,2013-03-10 03:51:00,
2013-03-09 18:21:00,67.0,-29.0,-100.00,NE,45,3.0,10.0,0,0.00,,,0.00,24.000000,,2013-03-10 04:21:00,
2013-03-09 18:31:00,67.0,-29.0,-100.00,NE,45,3.0,10.0,0,0.00,,,0.00,24.000000,,2013-03-10 04:31:00,
2013-03-09 18:41:00,67.0,-29.0,-100.00,NE,45,3.0,10.0,0,0.00,,,0.00,24.000000,,2013-03-10 04:41:00,
2013-03-09 18:51:00,64.0,-31.0,-100.00,WNW,284,1.0,9.0,0,0.27,,,0.27,4.000000,,2013-03-10 04:51:00,
2013-03-09 19:22:00,64.0,-31.0,-100.00,WNW,284,1.0,9.0,0,0.27,,,0.27,4.000000,,2013-03-10 05:22:00,
2013-03-09 19:31:00,64.0,-31.0,-100.00,WNW,284,1.0,9.0,0,0.27,,,0.27,4.000000,,2013-03-10 05:31:00,
2013-03-09 19:42:00,64.0,-31.0,-100.00,WNW,284,1.0,9.0,0,0.27,,,0.27,4.000000,,2013-03-10 05:42:00,
2013-03-09 19:51:00,64.0,-38.0,-100.00,NNW,340,1.0,9.0,1,0.00,,,0.27,0.000000,,2013-03-10 05:51:00,
2013-03-09 20:11:00,64.0,-38.0,-100.00,NNW,340,1.0,9.0,1,0.00,,,0.27,0.000000,,2013-03-10 06:11:00,
2013-03-09 20:21:00,64.0,-38.0,-100.00,NNW,340,1.0,9.0,1,0.00,,,0.27,0.000000,,2013-03-10 06:21:00,
2013-03-09 20:32:00,64.0,-38.0,-100.00,NNW,340,1.0,9.0,1,0.00,,,0.27,0.000000,,2013-03-10 06:32:00,
2013-03-09 20:41:00,64.0,-38.0,-100.00,NNW,340,1.0,9.0,1,0.00,,,0.27,0.000000,,2013-03-10 06:41:00,
2013-03-09 20:51:00,64.0,-13.0,-100.00,NNW,343,1.0,7.0,4,0.00,,,0.27,0.000000,,2013-03-10 06:51:00,
2013-03-09 21:11:00,64.0,-13.0,-100.00,NNW,343,1.0,7.0,4,0.00,,,0.27,0.000000,,2013-03-10 07:11:00,
2013-03-09 21:21:00,64.0,-13.0,-100.00,NNW,343,1.0,7.0,4,0.00,,,0.27,0.000000,,2013-03-10 07:21:00,
2013-03-09 21:31:00,64.0,-13.0,-100.00,NNW,343,1.0,7.0,4,0.00,,,0.27,0.000000,,2013-03-10 07:31:00,
2013-03-09 21:41:00,64.0,-13.0,-100.00,NNW,343,1.0,7.0,4,0.00,,,0.27,0.000000,,2013-03-10 07:41:00,
2013-03-09 21:51:00,64.0,-13.0,-100.00,SW,218,1.0,6.0,4,0.00,,,0.27,0.000000,,2013-03-10 07:51:00,
2013-03-09 22:11:00,64.0,-13.0,-100.00,SW,218,1.0,6.0,4,0.00,,,0.27,0.000000,,2013-03-10 08:11:00,
2013-03-09 22:21:00,64.0,-13.0,-100.00,SW,218,1.0,6.0,4,0.00,,,0.27,0.000000,,2013-03-10 08:21:00,
2013-03-09 22:31:00,64.0,-13.0,-100.00,SW,218,1.0,6.0,4,0.00,,,0.27,0.000000,,2013-03-10 08:31:00,
2013-03-09 22:42:00,64.0,-13.0,-100.00,SW,218,1.0,6.0,4,0.00,,,0.27,0.000000,,2013-03-10 08:42:00,
2013-03-09 22:51:00,64.0,-8.0,-100.00,NW,316,2.0,7.0,5,0.03,,,0.30,0.000000,,2013-03-10 08:51:00,
2013-03-09 23:21:00,64.0,-8.0,-100.00,NW,316,2.0,7.0,5,0.03,,,0.30,0.000000,,2013-03-10 09:21:00,
2013-03-09 23:31:00,64.0,-8.0,-100.00,NW,316,2.0,7.0,5,0.03,,,0.30,0.000000,,2013-03-10 09:31:00,
2013-03-09 23:41:00,64.0,-8.0,-100.00,NW,316,2.0,7.0,5,0.03,,,0.30,0.000000,,2013-03-10 09:41:00,
2013-03-09 23:51:00,63.0,-5.0,-100.00,WNW,298,2.0,8.0,6,0.03,,,0.33,0.000000,,2013-03-10 09:51:00,